Location: Newark
(34.9500°N, 139.9667°E)
Time: 19:49:05
(UTC+00:00)

Vanguard 2 Rocket - Pass Details

Date: 12 December 2019
Orbit: 554 x 3326 km, 32.9° (Epoch: 24 January)

Event Time Altitude Azimuth Distance (km) Brightness Sun altitude
Rises 05:16:32 0° 212° (SSW) 7,302 13.1 20.3°
Reaches altitude 10° 05:22:23 10° 204° (SSW) 6,238 12.9 19.5°
Maximum altitude 05:38:24 34° 149° (SSE) 3,946 10.5 17.3°
Drops below altitude 10° 05:50:03 10° 91° (E) 4,581 10.1 15.6°
Sets 05:53:29 0° 82° (E) 5,220 10.3 15.1°
